Weather History for Baker, MT

Change the Weather History Date:

Tuesday, October 23, 2012

  Actual Average Record
Temperature  
Mean Temperature 36 °F -  
Max Temperature 42 °F 82 °F 69 °F (2003)
Min Temperature 30 °F 41 °F 18 °F (2002)
Degree Days  
Heating Degree Days 29    
Moisture  
Dew Point 35 °F    
Average Humidity 85    
Maximum Humidity 93    
Minimum Humidity 73    
Precipitation  
Precipitation 0.10 in - - ()
Sea Level Pressure  
Sea Level Pressure 29.76 in    
Wind  
Wind Speed 7 mph (WNW)    
Max Wind Speed 16 mph    
Max Gust Speed 26 mph    
Visibility 8 miles    
Events Rain    
Averages and records for this station are not official NWS values.
T = Trace of Precipitation, MM = Missing Value Source: NWS Daily Summary

Daily Weather History Graph

Daily Weather History Graph

Search for Another Location

Airport:

Trip Planner

Search our weather history database for the weather conditions in past years. The results will help you decide how hot, cold, wet, or windy it might be!

Date:

Astronomy

Oct. 23, 2012 Rise Set
Actual Time 7:26 AM MDT 5:55 PM MDT
Civil Twilight 6:55 AM MDT 6:26 PM MDT
Nautical Twilight 6:20 AM MDT 7:01 PM MDT
Astronomical Twilight 5:45 AM MDT 7:36 PM MDT
Moon 2:58 PM MDT (10/23) 1:00 AM MDT (10/23)
Length of Visible Light 11h 30m
Length of Day
10h 29m
Waxing Gibbous, 67% of the Moon is Illuminated
Oct 23
Waxing Gibbous
Oct 29
Full
Nov 6
Last Quarter
Nov 13
New
Nov 20
First Quarter

Hourly Weather History & Observations

Time (MDT) Temp. Windchill Dew Point Humidity Pressure Visibility Wind Dir Wind Speed Gust Speed Precip Events Conditions
1:24 AM 39.2 °F 37.0 °F 35.6 °F 87% 29.63 in 10.0 mi SE 3.5 mph - 0.00 in   Overcast
1:51 AM 39.0 °F 34.0 °F 36.0 °F 89% 29.64 in 10.0 mi ESE 6.9 mph - 0.00 in   Mostly Cloudy
1:59 AM 39.2 °F 33.0 °F 35.6 °F 87% 29.62 in 10.0 mi SE 9.2 mph - N/A   Mostly Cloudy
2:51 AM 39.9 °F - 37.0 °F 89% 29.64 in 10.0 mi Calm Calm - N/A   Overcast
3:51 AM 39.9 °F 36.7 °F 37.0 °F 89% 29.64 in 10.0 mi East 4.6 mph - N/A   Mostly Cloudy
4:51 AM 37.9 °F - 35.1 °F 89% 29.64 in 6.0 mi Calm Calm - N/A   Partly Cloudy
5:48 AM 37.4 °F - 33.8 °F 87% 29.61 in 2.5 mi Calm Calm - N/A   Clear
5:51 AM 37.9 °F - 35.1 °F 89% 29.65 in 3.0 mi Calm Calm - N/A   Clear
6:20 AM 37.4 °F 34.9 °F 33.8 °F 87% 29.63 in 2.5 mi NW 3.5 mph - N/A   Partly Cloudy
6:44 AM 37.4 °F - 35.6 °F 93% 29.64 in 4.0 mi Calm Calm - N/A   Mostly Cloudy
6:51 AM 37.9 °F - 36.0 °F 93% 29.68 in 6.0 mi Calm Calm - N/A   Mostly Cloudy
7:51 AM 39.9 °F 35.1 °F 36.0 °F 86% 29.70 in 10.0 mi West 6.9 mph - N/A   Overcast
8:29 AM 39.2 °F 32.0 °F 37.4 °F 93% 29.67 in 4.0 mi West 11.5 mph - N/A   Overcast
8:42 AM 41.0 °F 33.5 °F 37.4 °F 87% 29.68 in 2.5 mi WNW 13.8 mph - N/A   Overcast
8:51 AM 41.0 °F 33.9 °F 37.9 °F 89% 29.72 in 4.0 mi WNW 12.7 mph - N/A   Overcast
9:17 AM 41.0 °F 33.5 °F 37.4 °F 87% 29.69 in 10.0 mi WNW 13.8 mph - N/A   Overcast
9:51 AM 41.0 °F 33.9 °F 37.9 °F 89% 29.75 in 9.0 mi WNW 12.7 mph - 0.01 in Rain Light Rain
10:41 AM 41.0 °F 34.3 °F 37.4 °F 87% 29.72 in 7.0 mi NW 11.5 mph - 0.02 in Rain Rain
10:51 AM 41.0 °F 35.2 °F 37.9 °F 89% 29.77 in 8.0 mi NW 9.2 mph - 0.03 in Rain Light Rain
11:01 AM 41.0 °F 35.8 °F 37.4 °F 87% 29.73 in 10.0 mi NW 8.1 mph - 0.00 in Rain Light Rain
11:43 AM 41.0 °F 38.0 °F 37.4 °F 87% 29.73 in 5.0 mi North 4.6 mph - 0.05 in Rain Light Rain
11:51 AM 41.0 °F 35.8 °F 37.9 °F 89% 29.79 in 10.0 mi WNW 8.1 mph - 0.05 in Rain Light Rain
11:56 AM 41.0 °F 34.7 °F 37.4 °F 87% 29.75 in 10.0 mi WNW 10.4 mph - 0.00 in   Overcast
12:51 PM 42.1 °F 36.1 °F 37.0 °F 82% 29.80 in 10.0 mi NW 10.4 mph - 0.00 in   Overcast
12:59 PM 42.8 °F 35.4 °F 37.4 °F 81% 29.76 in 10.0 mi NW 15.0 mph - N/A   Overcast
2:04 PM 42.8 °F 35.4 °F 37.4 °F 81% 29.78 in 10.0 mi WNW 15.0 mph 20.7 mph N/A   Overcast
2:23 PM 39.2 °F 30.5 °F 35.6 °F 87% 29.78 in 10.0 mi WNW 16.1 mph 26.5 mph N/A   Overcast
3:16 PM 39.2 °F 31.2 °F 35.6 °F 87% 29.80 in 10.0 mi WNW 13.8 mph - N/A   Overcast
3:25 PM 39.2 °F 31.2 °F 35.6 °F 87% 29.81 in 10.0 mi WNW 13.8 mph - N/A   Overcast
3:51 PM 41.0 °F 33.9 °F 35.1 °F 79% 29.84 in 10.0 mi WNW 12.7 mph 18.4 mph N/A   Mostly Cloudy
4:00 PM 41.0 °F 33.1 °F 35.6 °F 81% 29.82 in 10.0 mi NW 15.0 mph 21.9 mph N/A   Scattered Clouds
4:51 PM 39.0 °F 30.6 °F 30.9 °F 73% 29.88 in 10.0 mi WNW 15.0 mph 24.2 mph 0.01 in   Scattered Clouds
5:51 PM 37.9 °F 31.5 °F 30.0 °F 73% 29.90 in 10.0 mi WNW 9.2 mph - N/A   Clear
6:51 PM 36.0 °F 29.0 °F 28.9 °F 76% 29.93 in 10.0 mi WNW 9.2 mph - N/A   Clear
7:51 PM 35.1 °F 27.9 °F 28.0 °F 76% 29.93 in 10.0 mi West 9.2 mph - N/A   Clear
8:51 PM 32.0 °F 24.2 °F 27.0 °F 82% 29.93 in 10.0 mi West 9.2 mph - N/A   Clear
9:51 PM 30.9 °F 27.5 °F 26.1 °F 82% 29.93 in 10.0 mi WSW 3.5 mph - N/A   Clear
10:51 PM 30.9 °F - 25.0 °F 79% 29.95 in 10.0 mi Calm Calm - N/A   Clear
11:51 PM 30.9 °F 25.2 °F 25.0 °F 79% 29.96 in 10.0 mi WNW 5.8 mph - N/A   Clear